DW6276 Weather Reports


Display with metric or nautical units.
time (UTC)temp
F
wind
direction
speed
MPH
gust
MPH
rain 1hr
in
rain 24hr
in
rain mn
in
humidity
%
barometer
mb
20260508012016 55 0 2.0 3.0 0.00 0.00 0.00 28 1009.6
20260508011036 57 338 4.0 7.0 0.00 0.00 0.00 26 1009.6
20260508010036 58 338 4.0 6.0 0.00 0.00 0.00 26 1009.7
20260508005016 59 338 5.0 8.0 0.00 0.00 0.00 25 1009.4
20260508004016 59 338 5.0 10.0 0.00 0.00 0.00 24 1009.4
20260508003016 60 0 7.0 11.0 0.00 0.00 0.00 24 1009.4
20260508002016 60 315 7.0 11.0 0.00 0.00 0.00 23 1009.2
20260508001016 61 315 6.0 10.0 0.00 0.00 0.00 23 1009.2
20260508000016 61 315 6.0 9.0 0.00 0.00 0.00 23 1009.4
20260507235016 61 315 8.0 12.0 0.00 0.00 0.00 22 1009.4
20260507234016 61 315 8.0 12.0 0.00 0.00 0.00 23 1009.3
20260507233016 61 0 7.0 13.0 0.00 0.00 0.00 22 1009.4
20260507232016 61 338 7.0 11.0 0.00 0.00 0.00 22 1009.4
20260507231016 61 0 10.0 14.0 0.00 0.00 0.00 21 1009.5
20260507230016 61 0 4.0 6.0 0.00 0.00 0.00 22 1009.6
20260507225016 61 0 7.0 11.0 0.00 0.00 0.00 22 1009.7
20260507224016 61 0 7.0 12.0 0.00 0.00 0.00 21 1009.7
20260507223016 61 0 11.0 17.0 0.00 0.00 0.00 21 1009.7
20260507222016 61 0 9.0 15.0 0.00 0.00 0.00 21 1009.8
20260507221016 61 0 7.0 11.0 0.00 0.00 0.00 21 1009.8
20260507220016 60 0 9.0 15.0 0.00 0.00 0.00 22 1009.9
20260507215055 61 0 8.0 15.0 0.00 0.00 0.00 22 1009.9
20260507214015 60 338 8.0 18.0 0.00 0.00 0.00 23 1010.0
20260507213015 60 338 9.0 16.0 0.00 0.00 0.00 22 1010.0
20260507212016 60 0 7.0 13.0 0.00 0.00 0.00 22 1010.2
20260507211016 60 0 9.0 14.0 0.00 0.00 0.00 22 1010.2
20260507210016 60 338 4.0 10.0 0.00 0.00 0.00 24 1010.2
20260507205015 59 338 7.0 15.0 0.00 0.00 0.00 23 1010.3
20260507204015 59 0 5.0 9.0 0.00 0.00 0.00 23 1010.5
20260507203036 59 338 6.0 12.0 0.00 0.00 0.00 22 1010.7
20260507202016 59 338 9.0 18.0 0.00 0.00 0.00 23 1010.7
20260507201015 59 0 6.0 10.0 0.00 0.00 0.00 25 1010.9
20260507200015 58 338 5.0 12.0 0.00 0.00 0.00 25 1011.0
20260507195035 58 0 9.0 13.0 0.00 0.00 0.00 24 1011.1
20260507194015 58 338 8.0 17.0 0.00 0.00 0.00 24 1011.2
20260507193035 57 248 5.0 11.0 0.00 0.00 0.00 26 1011.3
20260507192015 57 315 10.0 14.0 0.00 0.00 0.00 26 1011.2
20260507191015 56 0 4.0 11.0 0.00 0.00 0.00 26 1011.4
20260507190015 57 338 10.0 17.0 0.00 0.00 0.00 24 1011.5
20260507185015 57 0 7.0 11.0 0.00 0.00 0.00 25 1011.5
20260507184015 56 45 3.0 7.0 0.00 0.00 0.00 25 1011.5
20260507183035 56 338 11.0 17.0 0.00 0.00 0.00 27 1011.6
20260507182035 56 0 7.0 13.0 0.00 0.00 0.00 25 1011.9
20260507181015 55 293 4.0 9.0 0.00 0.00 0.00 27 1011.9
20260507180015 54 45 5.0 9.0 0.00 0.00 0.00 27 1012.0
20260507175015 55 23 8.0 14.0 0.00 0.00 0.00 27 1012.0
20260507174017 54 293 5.0 11.0 0.00 0.00 0.00 29 1012.1
20260507173017 54 315 4.0 10.0 0.00 0.00 0.00 30 1012.1
20260507172017 54 45 5.0 11.0 0.00 0.00 0.00 29 1012.3
20260507171017 54 0 4.0 8.0 0.00 0.00 0.00 30 1012.4
20260507170017 53 23 6.0 9.0 0.00 0.00 0.00 29 1012.5
20260507165017 53 0 6.0 11.0 0.00 0.00 0.00 31 1012.5
20260507164017 53 45 6.0 14.0 0.00 0.00 0.00 31 1012.7
20260507163017 53 23 4.0 8.0 0.00 0.00 0.00 31 1012.7
20260507162037 53 45 9.0 12.0 0.00 0.00 0.00 30 1012.8
20260507161017 52 293 4.0 7.0 0.00 0.00 0.00 31 1012.7
20260507160037 51 45 3.0 7.0 0.00 0.00 0.00 33 1012.8
20260507155017 51 0 5.0 13.0 0.00 0.00 0.00 34 1012.9
20260507154017 51 45 6.0 12.0 0.00 0.00 0.00 33 1012.9
20260507153017 50 45 2.0 5.0 0.00 0.00 0.00 34 1012.9
20260507152017 50 23 5.0 10.0 0.00 0.00 0.00 33 1013.1
20260507151017 50 23 3.0 6.0 0.00 0.00 0.00 35 1013.0
20260507150017 49 338 5.0 8.0 0.00 0.00 0.00 36 1012.9
20260507145017 49 45 4.0 8.0 0.00 0.00 0.00 38 1013.1
20260507144017 49 45 5.0 9.0 0.00 0.00 0.00 34 1013.1
20260507143017 49 45 3.0 8.0 0.00 0.00 0.00 36 1013.2
20260507142017 48 68 2.0 5.0 0.00 0.00 0.00 41 1013.3
20260507141017 47 270 2.0 5.0 0.00 0.00 0.00 42 1013.3
20260507140017 47 23 2.0 4.0 0.00 0.00 0.00 44 1013.4
20260507135017 47 0 2.0 4.0 0.00 0.00 0.00 48 1013.5
20260507134017 46 315 1.0 2.0 0.00 0.00 0.00 51 1013.5
20260507133037 46 338 1.0 2.0 0.00 0.00 0.00 54 1013.5
20260507132016 45 338 1.0 2.0 0.00 0.00 0.00 57 1013.6
20260507131057 43 0.0 2.0 0.00 0.00 0.00 62 1013.6
20260507130017 42 338 1.0 2.0 0.00 0.00 0.00 63 1013.5
20260507125017 41 0 1.0 2.0 0.00 0.00 0.00 66 1013.6
20260507124017 40 338 1.0 1.0 0.00 0.00 0.00 68 1013.5
20260507123016 38 338 1.0 1.0 0.00 0.00 0.00 72 1013.6
20260507122016 37 0.0 0.0 0.00 0.00 0.00 76 1013.6
20260507121016 35 0.0 0.0 0.00 0.00 0.00 78 1013.6
20260507120017 33 0.0 0.0 0.00 0.00 0.00 81 1013.5
20260507115037 32 0.0 0.0 0.00 0.00 0.00 82 1013.4
20260507114016 31 0.0 2.0 0.00 0.00 0.00 82 1013.4
20260507113036 30 0.0 2.0 0.00 0.00 0.00 84 1013.2
20260507112016 30 0.0 0.0 0.00 0.00 0.00 83 1013.2
20260507111017 30 0.0 2.0 0.00 0.00 0.00 84 1013.3
20260507110016 30 0.0 2.0 0.00 0.00 0.00 83 1013.4
20260507105016 30 338 1.0 2.0 0.00 0.00 0.00 83 1013.4
20260507104016 30 0.0 2.0 0.00 0.00 0.00 83 1013.4
20260507103016 30 0.0 2.0 0.00 0.00 0.00 83 1013.5
20260507102016 30 23 1.0 4.0 0.00 0.00 0.00 83 1013.5
20260507101016 29 23 1.0 1.0 0.00 0.00 0.00 84 1013.5
20260507100016 29 0.0 0.0 0.00 0.00 0.00 84 1013.4
20260507095016 28 0.0 0.0 0.00 0.00 0.00 84 1013.5
20260507094016 28 0.0 0.0 0.00 0.00 0.00 84 1013.6
20260507093016 27 0.0 0.0 0.00 0.00 0.00 83 1013.4
20260507092116 27 0.0 0.0 0.00 0.00 0.00 83 1013.5
20260507091016 27 0.0 0.0 0.00 0.00 0.00 82 1013.6
20260507090016 27 0.0 0.0 0.00 0.00 0.00 82 1013.6
20260507085036 27 0.0 0.0 0.00 0.00 0.00 82 1013.6
20260507084016 27 0.0 0.0 0.00 0.00 0.00 82 1013.8
20260507083016 27 0.0 0.0 0.00 0.00 0.00 82 1013.8
20260507082016 27 0.0 0.0 0.00 0.00 0.00 81 1013.8
20260507081036 28 0.0 0.0 0.00 0.00 0.00 80 1013.9
20260507080016 28 0.0 0.0 0.00 0.00 0.00 81 1013.8
20260507075016 28 0.0 0.0 0.00 0.00 0.00 80 1013.7
20260507074016 28 0.0 0.0 0.00 0.00 0.00 80 1013.7
20260507073016 28 0.0 0.0 0.00 0.00 0.00 79 1013.9
20260507072036 29 0.0 0.0 0.00 0.00 0.00 79 1014.0
20260507071036 29 0.0 0.0 0.00 0.00 0.00 78 1014.0
20260507070016 29 0.0 0.0 0.00 0.00 0.00 78 1014.3
20260507065016 30 0.0 0.0 0.00 0.00 0.00 77 1014.2
20260507064036 30 0.0 0.0 0.00 0.00 0.00 77 1014.3
20260507063016 31 0.0 0.0 0.00 0.00 0.00 77 1014.6
20260507062016 31 0.0 0.0 0.00 0.00 0.00 77 1014.7
20260507061016 31 0.0 0.0 0.00 0.00 0.00 77 1014.7
20260507060016 32 0.0 0.0 0.00 0.00 0.00 76 1014.8
20260507055016 32 0.0 2.0 0.00 0.00 0.00 76 1014.8
20260507054016 33 0.0 0.0 0.00 0.00 0.00 75 1014.7
20260507053056 33 0.0 0.0 0.00 0.00 0.00 74 1014.8
20260507052016 33 0.0 0.0 0.00 0.00 0.00 73 1014.8
20260507051016 33 0.0 0.0 0.00 0.00 0.00 75 1014.8
20260507050016 33 0.0 0.0 0.00 0.00 0.00 71 1014.8
20260507045017 33 0.0 0.0 0.00 0.00 0.00 71 1014.8
20260507044016 33 0.0 0.0 0.00 0.00 0.00 71 1014.9
20260507043036 32 0.0 2.0 0.00 0.00 0.00 71 1014.8
20260507042016 32 0.0 0.0 0.00 0.00 0.00 70 1014.9
20260507041016 32 23 1.0 1.0 0.00 0.00 0.00 70 1014.9
20260507040016 32 0.0 0.0 0.00 0.00 0.00 72 1015.0
20260507035016 33 0.0 0.0 0.00 0.00 0.00 71 1015.1
20260507034036 33 0.0 0.0 0.00 0.00 0.00 70 1015.1
20260507033016 34 0.0 0.0 0.00 0.00 0.00 68 1015.1
20260507032016 34 0.0 0.0 0.00 0.00 0.00 68 1015.1
20260507031016 35 0.0 0.0 0.00 0.00 0.00 66 1015.3
20260507030016 36 0.0 0.0 0.00 0.00 0.00 63 1015.3
20260507025016 37 0.0 2.0 0.00 0.00 0.00 62 1015.3
20260507024016 38 0.0 2.0 0.00 0.00 0.00 60 1015.4
20260507023036 39 23 1.0 1.0 0.00 0.00 0.00 60 1015.3
20260507022016 40 23 1.0 2.0 0.00 0.00 0.00 59 1015.4
20260507021016 41 0.0 0.0 0.00 0.00 0.00 57 1015.3
20260507020016 42 0.0 1.0 0.00 0.00 0.00 56 1015.3
20260507015016 42 0.0 1.0 0.00 0.00 0.00 54 1015.1
20260507014016 43 0.0 1.0 0.00 0.00 0.00 51 1015.2
20260507013016 43 0.0 2.0 0.00 0.00 0.00 50 1015.2